CCA8144 ZUUU-ZBHH

Flight info

Callsign CCA8144
Flight time N/A
Altitude 33100
Route CDX W230 SUBUL G212 ONEBA W279 ANRUG W276 BOVKI W540 NNW W193 ALGOV W101 VALNI
Aircraft B737/M-SDE3FGHIRWY/LB1

Departure

Time N/A
Airport Chengdu Shuangliu International Airport (ZUUU)

Arrival

Time 2026-05-05 13:16
Airport Hohhot Baita International Airport (ZBHH)
Time Latitude Longitude Altitude Speed Heading
2026-05-05 12:32 37.84180 109.55192 32740 ft 408 kts 356°
2026-05-05 12:32 37.87013 109.55330 32739 ft 408 kts 356°
2026-05-05 12:32 37.92684 109.55606 32740 ft 408 kts 356°
2026-05-05 12:33 37.98354 109.55882 32740 ft 408 kts 356°
2026-05-05 12:33 38.04022 109.56158 32740 ft 408 kts 356°
2026-05-05 12:34 38.09693 109.56434 32740 ft 408 kts 356°
2026-05-05 12:34 38.15362 109.56711 32740 ft 408 kts 356°
2026-05-05 12:35 38.21040 109.56990 32740 ft 408 kts 356°
2026-05-05 12:35 38.26713 109.57269 32740 ft 408 kts 356°
2026-05-05 12:36 38.32380 109.57548 32739 ft 408 kts 356°
2026-05-05 12:36 38.38058 109.57942 32739 ft 412 kts
2026-05-05 12:37 38.43726 109.59235 32740 ft 415 kts
2026-05-05 12:37 38.49378 109.60697 32740 ft 415 kts
2026-05-05 12:38 38.55030 109.62158 32740 ft 415 kts
2026-05-05 12:38 38.60689 109.63622 32740 ft 415 kts
2026-05-05 12:39 38.66306 109.65075 32740 ft 415 kts
2026-05-05 12:39 38.71961 109.66540 32740 ft 415 kts
2026-05-05 12:40 38.77620 109.67974 32739 ft 414 kts
2026-05-05 12:40 38.83279 109.69381 32740 ft 414 kts
2026-05-05 12:41 38.88939 109.70799 32739 ft 414 kts
2026-05-05 12:41 38.94605 109.72224 32740 ft 414 kts
2026-05-05 12:42 39.00263 109.73649 32740 ft 414 kts
2026-05-05 12:42 39.05917 109.75073 32739 ft 414 kts
2026-05-05 12:43 39.11575 109.76519 32739 ft 415 kts
2026-05-05 12:43 39.17238 109.77976 32757 ft 417 kts
2026-05-05 12:44 39.22988 109.79442 32822 ft 424 kts
2026-05-05 12:44 39.28778 109.80932 32850 ft 425 kts
2026-05-05 12:45 39.34546 109.82422 32856 ft 425 kts
2026-05-05 12:45 39.40376 109.83931 32845 ft 425 kts
2026-05-05 12:46 39.46136 109.85423 32835 ft 425 kts
2026-05-05 12:46 39.51947 109.86732 32828 ft 422 kts 360°
2026-05-05 12:47 39.57770 109.87520 32827 ft 420 kts 358°
2026-05-05 12:47 39.63579 109.88311 32827 ft 420 kts 359°
2026-05-05 12:48 39.69390 109.89140 32821 ft 420 kts 359°
2026-05-05 12:48 39.75198 109.89981 32821 ft 420 kts 359°
2026-05-05 12:49 39.81006 109.90829 32820 ft 420 kts 359°
2026-05-05 12:49 39.86811 109.91672 32814 ft 420 kts 359°
2026-05-05 12:50 39.92617 109.92514 32810 ft 420 kts 359°
2026-05-05 12:50 39.98423 109.93365 32806 ft 420 kts 359°
2026-05-05 12:51 40.04239 109.94221 32800 ft 420 kts 359°
2026-05-05 12:51 40.10044 109.95077 32799 ft 420 kts 359°
2026-05-05 12:52 40.15851 109.95958 32795 ft 422 kts
2026-05-05 12:52 40.18720 109.96951 32795 ft 434 kts 13°
2026-05-05 12:52 40.21464 109.98710 32794 ft 445 kts 24°
2026-05-05 12:53 40.26451 110.03661 32792 ft 454 kts 32°
2026-05-05 12:53 40.31237 110.09055 32789 ft 453 kts 32°
2026-05-05 12:54 40.38429 110.17126 32774 ft 458 kts 36°
2026-05-05 12:54 40.40437 110.20438 32772 ft 474 kts 52°
2026-05-05 12:55 40.41788 110.24384 32774 ft 486 kts 66°
2026-05-05 12:55 40.42422 110.28772 32777 ft 495 kts 80°
2026-05-05 12:55 40.42464 110.33303 32779 ft 500 kts 88°
2026-05-05 12:56 40.42097 110.42420 32771 ft 500 kts 88°
2026-05-05 12:56 40.41905 110.51525 32766 ft 499 kts 87°
2026-05-05 12:57 40.41787 110.60616 32764 ft 498 kts 86°
2026-05-05 12:57 40.41705 110.69711 32614 ft 498 kts 86°
2026-05-05 12:57 40.41681 110.74236 32072 ft 495 kts 86°
2026-05-05 12:58 40.41645 110.78760 31270 ft 497 kts 86°
2026-05-05 12:58 40.41600 110.83296 30564 ft 496 kts 85°
2026-05-05 12:58 40.41556 110.87804 29979 ft 492 kts 85°
2026-05-05 12:58 40.41535 110.92277 29403 ft 488 kts 85°
2026-05-05 12:59 40.41489 110.96712 28821 ft 484 kts 86°
2026-05-05 12:59 40.41432 111.01111 28235 ft 480 kts 86°
2026-05-05 12:59 40.41370 111.05477 27653 ft 476 kts 86°
2026-05-05 13:00 40.41240 111.14098 26494 ft 468 kts 87°
2026-05-05 13:00 40.41174 111.18341 25921 ft 464 kts 87°
2026-05-05 13:01 40.40981 111.30876 24213 ft 452 kts 87°
2026-05-05 13:01 40.40947 111.34979 23651 ft 448 kts 87°
2026-05-05 13:01 40.40901 111.39045 23090 ft 444 kts 87°
2026-05-05 13:01 40.40943 111.43069 22533 ft 437 kts 82°
2026-05-05 13:02 40.41390 111.46970 21990 ft 429 kts 73°
2026-05-05 13:02 40.42244 111.50681 21419 ft 421 kts 65°
2026-05-05 13:02 40.43372 111.54201 20861 ft 415 kts 60°
2026-05-05 13:02 40.44607 111.57599 20312 ft 411 kts 59°
2026-05-05 13:03 40.45825 111.60931 19774 ft 408 kts 60°
2026-05-05 13:03 40.47042 111.64326 19227 ft 405 kts 60°
2026-05-05 13:03 40.48210 111.67625 18697 ft 402 kts 61°
2026-05-05 13:03 40.49416 111.70968 18155 ft 398 kts 60°
2026-05-05 13:04 40.50596 111.74245 17620 ft 395 kts 61°
2026-05-05 13:04 40.51735 111.77466 17091 ft 393 kts 62°
2026-05-05 13:04 40.52873 111.80716 16554 ft 390 kts 62°
2026-05-05 13:04 40.53999 111.83947 16017 ft 388 kts 62°
2026-05-05 13:05 40.55115 111.87159 15478 ft 385 kts 62°
2026-05-05 13:05 40.56221 111.90349 14938 ft 383 kts 63°
2026-05-05 13:05 40.57323 111.93532 14395 ft 381 kts 63°
2026-05-05 13:05 40.58416 111.96689 13852 ft 378 kts 63°
2026-05-05 13:06 40.59535 111.99812 13306 ft 375 kts 59°
2026-05-05 13:06 40.61074 112.02511 12769 ft 365 kts 40°
2026-05-05 13:06 40.63120 112.04361 12330 ft 350 kts 20°
2026-05-05 13:06 40.65406 112.05187 11902 ft 335 kts
2026-05-05 13:07 40.67685 112.04979 11339 ft 324 kts 341°
2026-05-05 13:07 40.69755 112.03920 10809 ft 317 kts 330°
2026-05-05 13:07 40.71753 112.02717 10360 ft 314 kts 334°
2026-05-05 13:07 40.73773 112.01734 10136 ft 304 kts 336°
2026-05-05 13:08 40.75356 112.01029 10040 ft 293 kts 338°
2026-05-05 13:08 40.76639 112.00670 9991 ft 289 kts 351°
2026-05-05 13:08 40.78597 112.01038 9861 ft 287 kts 14°
2026-05-05 13:08 40.80258 112.02543 9421 ft 298 kts 45°
2026-05-05 13:09 40.81215 112.04988 9022 ft 302 kts 70°
2026-05-05 13:09 40.81652 112.07669 8787 ft 295 kts 78°
2026-05-05 13:09 40.82271 112.10159 8680 ft 275 kts 55°
2026-05-05 13:09 40.83612 112.11738 8542 ft 248 kts 20°
2026-05-05 13:10 40.85195 112.12205 8444 ft 222 kts 359°
2026-05-05 13:10 40.86665 112.12151 8252 ft 204 kts 349°
2026-05-05 13:10 40.88038 112.11800 7821 ft 199 kts 339°
2026-05-05 13:10 40.89362 112.11246 7351 ft 200 kts 336°
2026-05-05 13:11 40.90483 112.10257 6857 ft 194 kts 301°
2026-05-05 13:11 40.90763 112.08584 6526 ft 188 kts 266°
2026-05-05 13:11 40.90581 112.06927 6338 ft 177 kts 260°
2026-05-05 13:11 40.90320 112.05386 6235 ft 166 kts 256°
2026-05-05 13:12 40.90018 112.03977 6143 ft 155 kts 254°
2026-05-05 13:12 40.89712 112.02641 6021 ft 150 kts 253°
2026-05-05 13:12 40.89410 112.01338 5920 ft 147 kts 253°
2026-05-05 13:12 40.89108 112.00046 5876 ft 147 kts 253°
2026-05-05 13:13 40.88802 111.98742 5769 ft 150 kts 253°
2026-05-05 13:13 40.88492 111.97420 5569 ft 150 kts 253°
2026-05-05 13:13 40.88183 111.96110 5367 ft 147 kts 253°
2026-05-05 13:13 40.87886 111.94845 5173 ft 141 kts 253°
2026-05-05 13:14 40.87601 111.93634 4989 ft 136 kts 253°
2026-05-05 13:14 40.87325 111.92462 4813 ft 132 kts 253°
2026-05-05 13:14 40.87058 111.91329 4642 ft 127 kts 253°
2026-05-05 13:14 40.86803 111.90240 4460 ft 126 kts 253°
2026-05-05 13:15 40.86545 111.89117 4302 ft 129 kts 253°
2026-05-05 13:15 40.86274 111.87968 4145 ft 132 kts 252°
2026-05-05 13:15 40.85995 111.86776 3962 ft 135 kts 251°
2026-05-05 13:15 40.85712 111.85597 3752 ft 142 kts 251°
2026-05-05 13:16 40.85506 111.84727 3647 ft 147 kts 252°
2026-05-05 13:16 40.85133 111.83137 3565 ft 115 kts 252°
2026-05-05 13:16 40.84967 111.82457 3564 ft 38 kts 253°
2026-05-05 13:16 40.84914 111.82221 3564 ft 25 kts 261°
2026-05-05 13:17 40.84902 111.82032 3564 ft 20 kts 274°
2026-05-05 13:17 40.84927 111.81866 3564 ft 10 kts 284°
2026-05-05 13:17 40.84945 111.81808 3564 ft 12 kts 317°
2026-05-05 13:17 40.85038 111.81760 3564 ft 18 kts 343°
2026-05-05 13:18 40.85196 111.81692 3564 ft 17 kts 342°
2026-05-05 13:18 40.85255 111.81677 3564 ft 9 kts 16°
2026-05-05 13:18 40.85292 111.81677 3564 ft 5 kts 342°
2026-05-05 13:18 40.85325 111.81663 3564 ft 5 kts 342°
2026-05-05 13:19 40.85335 111.81659 3564 ft 0 kts 342°